Wind_Speed
38 40 40 41 41 41 41 40 40 40 41 41 42 42 42 42 42 42 42 43 44 44 45 45 45 45 45 45 45 45 45 45 45 46 47 48 49 50 51 52 52 53 53 54 54 54 55 55 55 55 55 55
38 39 40 40 40 40 39 39 39 40 41 41 42 42 41 41 41 41 42 42 43 43 44 45 46 47 46 46 46 46 45 46 47 48 49 50 51 52 53 54 55 56 56 56 56 56 56 56 57 57 56 57
38 38 39 40 39 38 38 39 40 41 42 42 42 41 40 41 41 42 42 42 43 43 44 46 47 48 48 48 47 47 47 48 50 50 51 52 53 54 55 56 57 58 58 58 58 59 59 59 59 59 59 59
38 38 38 39 38 38 38 39 40 41 41 41 41 40 40 41 42 42 42 43 43 44 45 47 48 49 49 48 48 49 50 52 52 53 54 55 56 57 58 58 59 59 60 60 60 60 60 60 61 61 61 61
38 38 38 38 38 38 39 40 40 41 40 40 40 40 41 42 42 43 43 44 45 45 46 48 50 50 50 50 50 51 53 54 54 55 56 58 59 59 60 60 61 61 61 61 61 61 61 61 62 63 62 62
38 39 39 39 39 39 39 39 39 40 40 40 40 41 41 42 43 44 45 46 47 48 48 49 51 51 51 51 52 53 55 56 57 58 60 61 62 62 62 62 63 63 63 63 63 63 63 63 64 65 65 65
38 38 39 39 39 39 39 39 39 39 40 41 41 41 41 42 43 45 46 47 48 49 49 50 50 51 52 52 53 54 56 58 59 61 63 64 64 64 64 65 65 65 66 66 66 66 66 66 66 67 68 68
39 39 39 39 39 39 40 40 40 41 41 41 42 42 42 43 45 46 47 48 48 49 49 49 50 51 53 54 55 55 57 59 61 63 65 66 67 66 66 67 68 68 69 69 69 68 68 69 69 70 70 70
39 39 39 39 40 40 41 41 42 42 43 43 43 43 44 45 47 48 49 49 49 49 49 50 52 53 55 57 58 59 60 62 63 65 66 68 69 69 69 70 71 72 72 72 72 71 71 70 71 72 72 73
40 40 40 40 41 42 42 42 43 44 44 44 45 46 46 47 48 48 49 50 50 50 51 52 54 56 58 60 62 63 63 65 66 67 68 69 70 71 72 73 74 75 75 74 74 74 73 73 72 72 73 74
40 41 41 42 42 43 44 44 44 45 46 46 47 47 48 49 49 49 49 51 51 52 53 54 56 58 60 62 63 65 65 66 68 69 70 71 72 73 74 74 75 76 76 76 76 76 76 76 76 75 75 75
42 42 43 44 45 46 46 47 47 47 47 48 49 49 50 51 51 50 50 52 53 54 55 57 59 60 63 64 66 66 66 67 68 70 72 73 74 74 74 74 75 76 76 77 77 78 79 79 79 79 79 79
45 45 45 45 47 48 49 49 49 49 49 50 50 51 52 52 52 52 53 54 55 56 58 60 62 64 66 67 68 69 69 69 70 71 73 74 75 74 73 73 74 76 77 78 78 79 80 81 82 83 83 83
47 47 47 47 48 50 51 51 51 51 52 52 52 53 53 53 54 56 57 58 59 59 61 63 65 67 68 69 70 71 71 73 74 75 76 77 77 75 74 74 76 77 78 80 81 81 82 82 84 85 86 87
49 49 49 50 51 51 53 53 53 53 54 54 55 56 56 56 57 58 60 61 62 64 65 67 69 70 71 71 72 72 73 75 76 78 80 80 80 78 77 78 79 80 81 82 83 84 84 84 85 86 87 89
51 51 52 52 53 53 54 55 55 55 56 57 58 59 60 60 61 62 63 64 66 68 70 72 73 74 75 75 75 75 76 77 78 80 82 82 82 81 81 82 83 84 84 85 86 87 87 87 87 88 89 91
53 54 54 54 54 55 55 56 56 57 58 58 60 61 62 63 64 66 67 68 70 72 74 76 77 77 78 78 79 79 80 81 82 83 84 85 85 85 85 86 86 87 87 88 89 90 90 91 91 91 92 92
55 55 56 56 56 56 57 57 57 58 59 60 61 63 64 65 67 69 70 72 74 75 77 77 78 79 79 80 81 82 83 84 85 86 87 88 89 89 89 89 89 90 90 91 92 92 93 94 94 95 95 95
57 57 57 57 57 58 59 59 59 60 61 63 64 65 66 68 70 71 73 74 75 76 77 78 79 80 81 82 83 84 85 86 87 88 89 90 91 92 92 93 93 94 94 95 95 96 96 96 97 97 98 98
58 58 58 58 59 59 60 61 61 62 63 64 66 67 69 71 72 74 75 75 76 77 78 79 80 81 82 84 85 86 88 89 90 90 91 92 93 93 94 96 97 98 99 99 100 100 100 100 101 101 101 101
59 59 59 60 60 61 62 62 63 64 65 66 68 70 72 73 74 75 76 77 77 79 80 81 82 84 85 86 88 89 91 91 92 93 93 94 95 96 97 98 99 101 102 103 103 104 104 105 105 106 105 105
60 60 60 61 61 62 63 64 64 66 67 69 70 72 73 75 75 76 77 79 80 82 83 85 86 87 89 90 91 93 94 95 96 97 98 98 99 100 100 101 102 103 104 105 106 106 107 108 108 109 109 110
62 62 61 62 62 63 64 65 66 67 69 70 71 72 74 76 76 78 80 82 84 86 88 89 91 92 93 94 96 97 98 99 100 101 102 102 103 104 105 105 106 106 107 107 107 108 108 109 109 110 112 113
63 63 63 63 64 64 66 67 68 69 70 71 72 73 76 78 79 81 84 86 88 90 92 94 95 96 97 98 99 100 102 103 104 105 105 106 106 107 108 109 110 110 109 109 109 109 110 110 111 112 114 115
64 65 65 66 66 66 67 69 69 70 72 73 73 75 77 80 83 85 87 90 92 93 95 96 97 98 99 100 102 103 105 106 107 108 108 109 109 110 110 111 112 113 113 113 113 113 113 114 115 116 117 118
65 66 66 67 67 67 68 69 70 71 73 74 75 77 78 81 85 88 90 92 93 95 96 97 99 100 102 103 104 106 108 109 110 111 112 112 112 113 113 114 115 117 118 118 118 118 118 118 119 121 123 123
65 66 67 67 67 68 68 69 70 72 74 76 77 78 80 83 87 91 93 94 95 96 98 100 102 104 106 107 108 110 111 113 114 114 115 115 115 116 116 118 119 122 124 124 125 125 125 125 125 125 127 128
65 66 66 67 67 67 68 69 71 74 76 78 80 83 86 88 92 95 96 97 99 100 102 104 106 108 109 110 112 113 114 115 116 116 117 117 118 119 120 121 124 126 129 130 132 133 133 132 132 131 131 131
65 65 66 66 66 67 68 71 74 77 80 82 85 88 91 93 96 97 98 100 102 104 105 107 108 109 111 112 113 115 116 116 117 118 119 120 121 123 125 126 128 130 133 135 137 138 138 138 137 136 136 136
64 64 65 66 67 69 71 75 78 81 84 87 89 92 94 96 97 99 101 103 105 106 107 108 109 111 112 113 115 116 117 119 120 121 123 124 126 128 130 131 132 134 136 137 139 141 143 143 142 141 140 140
63 64 65 67 69 71 75 78 81 84 86 88 91 93 95 97 99 102 104 105 106 107 108 110 111 113 114 116 117 119 120 122 124 126 128 130 131 133 135 136 136 137 138 140 141 143 145 147 147 147 146 145
Wind_Direction
292 292 292 292 292 292 292 291 291 291 291 292 293 294 295 295 296 297 299 300 300 298 297 296 295 295 294 293 293 293 295 297 299 300 300 301 301 301 301 301 301 301 301 301 301 301 300 300 300 299 297 297
293 293 293 291 291 291 291 291 291 292 292 293 294 294 295 296 298 299 300 301 300 299 298 297 297 296 295 294 294 294 296 298 300 300 301 301 301 301 302 302 302 301 301 301 301 301 301 300 300 299 299 298
293 293 292 291 291 291 291 291 292 293 293 294 294 295 297 298 299 300 300 300 300 299 298 298 298 298 296 294 294 295 297 298 299 300 301 302 302 302 303 303 302 302 302 302 302 302 301 301 300 299 299 298
295 293 292 292 292 291 291 292 293 293 294 295 296 298 299 300 301 301 301 301 300 299 298 298 298 297 295 294 294 296 297 298 299 300 302 303 303 304 303 303 303 303 303 303 303 303 302 302 301 300 299 298
297 295 293 292 292 292 292 293 294 295 296 297 299 300 301 302 303 303 303 301 300 299 298 297 297 297 296 295 295 296 297 298 298 300 302 303 303 303 303 303 303 303 303 303 303 303 303 303 302 302 301 300
297 297 296 294 293 293 293 294 296 297 298 299 300 301 302 303 304 304 303 302 301 300 299 298 298 298 298 297 295 296 296 297 297 299 301 302 302 302 302 302 303 303 303 303 303 303 303 303 303 302 302 301
298 297 297 296 296 295 295 295 296 297 298 299 300 301 302 303 304 304 304 303 302 301 300 300 300 300 299 298 297 296 296 296 297 298 299 300 301 301 301 302 302 303 303 303 303 303 303 303 303 302 302 302
299 298 297 297 297 297 297 297 297 298 298 299 300 301 302 303 304 305 304 303 303 302 301 300 300 300 300 299 298 297 296 296 296 297 299 300 301 301 301 301 302 302 303 303 302 302 302 302 302 302 302 301
300 299 298 298 298 297 298 298 298 299 299 299 300 301 302 303 305 306 305 305 304 303 301 300 299 299 299 299 298 297 297 296 296 297 298 299 300 300 300 301 301 301 302 302 301 301 301 301 301 301 301 301
300 300 299 299 299 299 299 299 299 299 299 300 300 302 302 304 305 306 307 306 305 303 301 299 299 299 298 298 298 298 298 298 298 298 299 299 299 299 300 300 300 301 301 301 300 300 300 299 299 299 299 299
302 302 302 302 302 302 302 301 301 300 300 300 301 303 304 305 306 306 307 307 305 303 301 300 299 298 298 298 298 298 298 298 299 299 299 299 299 299 299 300 300 300 301 301 300 300 299 298 298 297 298 298
305 305 305 305 305 304 304 303 303 302 302 303 304 304 305 305 305 304 305 306 305 303 301 299 299 299 299 299 298 298 298 298 298 299 299 299 299 299 299 299 300 300 301 300 300 299 299 298 297 296 296 296
307 306 306 306 306 306 305 305 305 305 305 305 305 305 305 305 304 304 304 304 304 303 301 300 300 300 300 300 299 299 299 299 299 299 299 299 299 298 298 299 300 300 301 301 300 299 298 297 296 296 295 295
308 307 307 307 307 307 307 307 307 307 308 307 307 306 306 306 306 306 306 306 305 305 304 303 302 302 302 301 301 300 300 299 299 299 299 299 299 298 297 297 299 299 300 300 300 299 298 297 296 296 295 295
309 308 308 308 308 308 308 308 308 309 309 309 309 308 308 307 307 307 308 308 307 306 306 305 305 304 303 302 301 301 300 299 299 299 300 300 299 298 296 296 297 298 299 299 299 298 297 296 296 295 295 294
310 309 309 308 308 309 309 308 308 309 309 309 309 309 309 308 308 308 308 307 307 306 306 305 305 304 303 302 302 301 301 300 300 299 299 299 299 298 297 296 296 296 297 298 298 297 297 296 295 295 294 293
310 309 308 308 308 308 309 308 308 308 308 308 308 308 308 308 308 307 307 307 306 306 305 305 304 304 303 303 303 302 302 301 300 300 299 299 299 298 297 296 295 295 295 296 296 296 296 295 295 294 293 292
309 308 307 307 307 307 308 308 307 307 307 307 307 307 307 307 307 307 307 306 306 306 305 304 304 303 303 303 302 302 302 301 301 300 299 299 298 298 297 296 295 294 294 294 295 295 295 295 295 294 294 292
308 307 306 306 306 306 307 306 306 306 306 306 306 306 306 306 306 306 306 306 305 305 304 304 303 303 303 302 302 302 302 301 301 300 299 299 298 298 297 296 295 294 294 294 294 294 294 293 293 293 293 292
307 306 305 304 304 305 305 305 305 305 305 305 305 305 305 306 306 306 305 305 305 304 304 304 304 303 303 303 303 303 302 302 301 300 300 299 298 297 297 296 295 295 294 294 294 293 293 293 292 292 292 292
306 305 304 303 303 304 304 305 305 304 304 304 305 305 306 306 306 305 305 305 305 305 305 304 304 304 304 303 303 303 303 302 301 301 300 299 298 297 297 296 295 294 294 293 293 293 293 292 292 292 292 291
306 304 303 303 303 303 303 303 303 303 303 304 305 306 306 306 305 304 303 304 305 305 305 305 305 304 304 303 303 303 303 302 302 301 301 300 299 298 297 296 295 294 293 293 293 292 292 292 292 292 291 291
305 304 303 303 302 302 302 302 302 303 303 304 304 305 305 304 303 302 303 303 305 305 306 306 305 305 304 304 303 303 303 302 302 301 301 300 299 298 297 296 295 294 293 293 293 292 292 291 291 290 290 290
304 303 303 303 302 302 302 302 302 302 303 304 305 305 305 303 303 303 303 304 305 305 306 306 305 305 305 304 303 303 302 302 301 301 300 299 298 298 297 296 295 295 294 293 292 292 291 291 290 290 289 289
304 304 303 303 302 302 302 302 303 303 305 305 305 304 304 304 304 305 306 306 305 305 305 305 305 305 304 303 302 302 301 300 300 299 299 298 298 298 297 296 295 295 294 293 293 292 291 291 291 290 289 289
303 303 302 302 301 302 302 302 303 304 305 304 304 304 305 305 306 307 307 306 306 305 305 305 305 304 304 303 302 301 300 300 300 300 299 299 299 298 298 297 296 295 295 294 293 293 292 292 291 291 290 290
303 302 302 302 302 302 302 303 303 304 304 304 305 305 306 307 307 308 308 307 307 306 306 306 305 304 304 303 302 301 301 301 301 301 301 300 300 299 298 298 297 296 296 295 295 294 294 293 292 291 291 291
303 303 303 302 302 302 302 302 303 303 304 305 306 307 307 308 309 309 309 309 308 308 307 306 305 305 304 303 303 303 303 302 302 301 301 300 300 299 298 298 297 297 296 296 296 295 295 295 294 293 292 291
304 303 303 303 303 303 303 303 304 305 306 306 307 307 308 308 309 309 309 309 308 307 306 306 305 304 304 303 303 303 302 302 302 301 301 300 299 298 298 297 297 297 297 297 296 296 296 295 294 293 292 291
305 304 304 304 305 304 304 304 305 306 306 307 307 307 307 307 308 308 308 308 307 307 306 305 305 304 304 304 303 303 303 302 302 301 300 300 299 299 299 298 298 298 297 297 296 296 295 295 294 293 292 290
306 306 306 305 304 304 304 305 306 306 306 307 306 306 306 307 308 308 308 308 308 307 307 306 306 305 305 305 305 304 304 303 302 301 301 300 300 300 300 299 299 298 297 296 296 295 295 294 294 293 291 290
Height
10761 10759 10758 10756 10753 10752 10750 10748 10746 10744 10742 10740 10738 10736 10734 10732 10730 10728 10726 10723 10721 10719 10717 10714 10712 10710 10708 10705 10703 10700 10698 10695 10693 10691 10688 10686 10683 10681 10678 10676 10674 10671 10669 10666 10664 10661 10659 10656 10654 10651 10649 10646
10757 10756 10754 10752 10750 10748 10746 10744 10742 10740 10738 10736 10734 10733 10731 10728 10726 10724 10722 10719 10717 10715 10713 10710 10708 10706 10703 10701 10698 10696 10693 10690 10688 10685 10683 10681 10678 10676 10673 10670 10668 10665 10663 10660 10658 10655 10653 10650 10647 10645 10642 10640
10754 10753 10750 10748 10746 10744 10742 10740 10738 10736 10734 10733 10731 10729 10727 10724 10721 10719 10717 10715 10713 10711 10709 10706 10704 10701 10698 10696 10693 10690 10688 10686 10683 10680 10678 10675 10673 10670 10668 10665 10662 10659 10657 10654 10652 10649 10647 10644 10641 10638 10636 10634
10750 10749 10747 10744 10742 10741 10738 10736 10735 10733 10731 10729 10727 10725 10722 10720 10717 10715 10713 10711 10709 10707 10704 10702 10699 10697 10694 10691 10688 10685 10683 10680 10678 10675 10673 10670 10667 10665 10662 10659 10656 10653 10651 10648 10645 10643 10641 10638 10635 10632 10630 10627
10746 10744 10743 10740 10738 10737 10735 10733 10731 10729 10727 10725 10723 10721 10718 10716 10713 10711 10709 10707 10704 10702 10700 10697 10694 10692 10689 10686 10683 10680 10677 10675 10672 10670 10667 10664 10662 10659 10656 10653 10650 10647 10645 10642 10639 10636 10634 10631 10628 10625 10623 10620
10743 10740 10738 10736 10735 10733 10731 10729 10727 10725 10722 10720 10718 10716 10714 10712 10709 10707 10704 10702 10700 10697 10695 10692 10689 10686 10684 10681 10678 10675 10672 10669 10667 10664 10661 10658 10656 10653 10649 10646 10643 10640 10638 10635 10633 10629 10627 10624 10621 10617 10614 10612
10740 10737 10734 10732 10731 10729 10727 10725 10723 10721 10718 10716 10714 10712 10710 10707 10705 10702 10700 10697 10695 10692 10689 10687 10684 10681 10678 10676 10673 10670 10667 10664 10662 10659 10655 10652 10650 10647 10643 10640 10637 10634 10631 10628 10625 10622 10619 10616 10613 10610 10607 10603
10736 10733 10731 10729 10727 10725 10722 10720 10718 10716 10714 10712 10709 10707 10705 10703 10700 10698 10695 10692 10690 10687 10684 10681 10679 10676 10672 10669 10667 10665 10662 10659 10656 10653 10649 10645 10642 10640 10637 10633 10630 10627 10624 10620 10617 10615 10611 10607 10604 10602 10599 10596
10732 10730 10727 10725 10723 10721 10719 10716 10714 10711 10709 10707 10705 10703 10701 10699 10696 10693 10690 10688 10685 10682 10679 10676 10673 10670 10667 10664 10661 10658 10656 10652 10650 10647 10643 10639 10636 10632 10630 10627 10623 10620 10618 10614 10610 10607 10604 10601 10596 10593 10590 10587
10728 10726 10724 10722 10719 10717 10715 10713 10710 10708 10705 10703 10701 10698 10696 10694 10692 10689 10686 10683 10680 10677 10674 10671 10667 10665 10661 10658 10655 10651 10649 10645 10642 10640 10637 10633 10630 10626 10623 10619 10616 10612 10609 10607 10603 10599 10596 10593 10590 10586 10582 10578
10725 10722 10720 10718 10716 10713 10711 10709 10706 10704 10701 10699 10697 10694 10691 10689 10686 10684 10681 10678 10675 10671 10668 10665 10662 10659 10655 10653 10649 10646 10644 10640 10635 10631 10628 10625 10622 10619 10615 10612 10608 10604 10601 10598 10595 10591 10587 10583 10581 10578 10574 10571
10721 10719 10716 10713 10711 10709 10706 10704 10702 10699 10697 10694 10692 10690 10687 10684 10681 10679 10676 10672 10669 10666 10662 10659 10656 10653 10649 10646 10642 10640 10637 10634 10630 10626 10622 10618 10614 10611 10607 10604 10600 10596 10593 10589 10586 10583 10579 10574 10571 10568 10565 10562
10716 10714 10712 10710 10707 10704 10702 10699 10697 10695 10692 10690 10687 10685 10682 10679 10676 10673 10670 10667 10664 10660 10657 10653 10649 10646 10642 10639 10635 10632 10630 10626 10623 10619 10615 10611 10607 10603 10600 10596 10592 10588 10584 10580 10577 10573 10569 10566 10562 10558 10555 10551
10712 10710 10707 10705 10703 10700 10697 10695 10693 10690 10687 10685 10682 10680 10677 10674 10671 10667 10663 10660 10657 10655 10651 10647 10643 10639 10635 10631 10628 10625 10622 10617 10614 10610 10606 10602 10599 10595 10592 10588 10583 10579 10575 10571 10567 10563 10560 10556 10552 10548 10545 10540
10708 10706 10703 10701 10698 10696 10693 10690 10688 10685 10682 10679 10676 10673 10671 10668 10665 10661 10658 10654 10651 10648 10644 10640 10636 10632 10628 10624 10620 10617 10613 10609 10604 10601 10596 10592 10589 10585 10582 10579 10574 10569 10566 10562 10557 10553 10549 10546 10542 10538 10534 10529
10703 10701 10698 10696 10694 10691 10688 10685 10682 10680 10677 10673 10670 10667 10664 10661 10658 10655 10651 10648 10645 10641 10637 10633 10628 10624 10620 10616 10612 10608 10605 10600 10596 10592 10587 10582 10579 10575 10572 10568 10564 10559 10555 10552 10547 10542 10538 10534 10531 10528 10523 10519
10699 10696 10694 10691 10689 10686 10683 10680 10677 10674 10671 10668 10665 10661 10658 10655 10651 10648 10644 10641 10637 10633 10629 10625 10621 10616 10612 10607 10603 10599 10594 10590 10586 10581 10577 10573 10569 10565 10561 10557 10553 10548 10545 10541 10535 10531 10526 10522 10519 10515 10512 10508
10694 10691 10689 10686 10683 10680 10678 10675 10671 10668 10665 10662 10659 10655 10652 10648 10645 10641 10637 10634 10630 10625 10621 10617 10612 10608 10604 10599 10594 10589 10585 10580 10576 10571 10566 10562 10557 10554 10549 10545 10541 10536 10534 10530 10525 10520 10514 10510 10506 10502 10498 10494
10690 10687 10683 10681 10678 10675 10672 10669 10666 10663 10659 10656 10652 10649 10645 10641 10638 10634 10630 10626 10622 10618 10613 10609 10604 10599 10594 10590 10585 10580 10575 10570 10565 10561 10556 10551 10546 10542 10537 10532 10528 10523 10520 10517 10513 10509 10504 10499 10494 10489 10485 10480
10685 10682 10678 10675 10672 10669 10666 10663 10660 10656 10653 10649 10645 10642 10638 10634 10630 10626 10621 10617 10613 10609 10605 10600 10595 10590 10584 10579 10574 10569 10564 10559 10554 10550 10546 10540 10535 10531 10527 10520 10515 10510 10506 10503 10500 10495 10491 10486 10480 10476 10472 10467
10680 10676 10673 10670 10667 10663 10660 10656 10653 10649 10646 10643 10638 10634 10630 10626 10622 10617 10612 10608 10604 10600 10595 10590 10585 10580 10574 10569 10563 10558 10553 10547 10542 10537 10533 10529 10523 10518 10515 10510 10503 10498 10493 10489 10486 10482 10476 10471 10466 10460 10456 10451
10674 10671 10667 10664 10661 10657 10654 10650 10647 10643 10639 10636 10631 10627 10622 10617 10614 10609 10604 10600 10595 10590 10585 10580 10574 10569 10564 10558 10552 10547 10541 10536 10530 10525 10519 10516 10510 10503 10499 10495 10489 10484 10480 10476 10472 10468 10463 10457 10451 10446 10440 10434
10668 10665 10661 10658 10655 10651 10647 10644 10641 10636 10633 10629 10625 10621 10616 10611 10606 10602 10596 10591 10586 10581 10575 10569 10563 10558 10552 10547 10541 10535 10529 10523 10517 10511 10505 10500 10495 10489 10482 10476 10472 10467 10463 10461 10456 10451 10448 10443 10437 10431 10425 10419
10662 10659 10655 10652 10649 10645 10641 10637 10634 10630 10626 10623 10619 10615 10609 10603 10598 10594 10588 10583 10577 10572 10566 10559 10553 10547 10541 10535 10529 10523 10517 10511 10505 10498 10493 10486 10480 10474 10467 10459 10452 10448 10445 10442 10440 10435 10431 10427 10422 10416 10410 10404
10656 10653 10649 10645 10642 10639 10634 10630 10627 10623 10619 10615 10612 10608 10602 10594 10589 10585 10579 10573 10567 10562 10556 10549 10542 10536 10530 10524 10518 10511 10505 10498 10492 10485 10479 10473 10466 10459 10453 10446 10436 10429 10425 10422 10421 10418 10415 10410 10403 10397 10391 10387
10651 10647 10643 10639 10636 10632 10628 10623 10620 10616 10612 10607 10604 10601 10597 10588 10580 10576 10570 10564 10558 10552 10546 10540 10532 10526 10519 10513 10506 10499 10491 10484 10477 10470 10463 10457 10451 10442 10434 10429 10420 10411 10405 10402 10399 10396 10396 10394 10388 10379 10369 10366
10645 10641 10637 10633 10629 10626 10622 10617 10613 10609 10605 10600 10596 10592 10589 10583 10574 10567 10560 10554 10548 10541 10535 10528 10520 10512 10505 10498 10491 10483 10476 10468 10460 10453 10445 10438 10432 10425 10417 10409 10400 10391 10382 10378 10376 10371 10369 10370 10367 10364 10354 10347
10640 10635 10631 10627 10623 10619 10616 10611 10606 10602 10597 10592 10587 10582 10578 10573 10565 10557 10550 10541 10534 10527 10520 10513 10505 10498 10490 10482 10475 10467 10460 10453 10445 10437 10429 10422 10414 10407 10401 10394 10384 10373 10362 10355 10349 10344 10343 10342 10338 10337 10335 10329
10634 10629 10625 10620 10616 10611 10607 10603 10597 10592 10587 10581 10575 10570 10565 10560 10554 10547 10539 10532 10524 10517 10509 10501 10494 10486 10478 10470 10462 10454 10446 10438 10430 10421 10413 10406 10398 10389 10383 10378 10370 10358 10347 10337 10326 10317 10313 10313 10312 10311 10308 10303
10628 10623 10619 10614 10609 10604 10599 10594 10589 10583 10578 10572 10566 10560 10554 10549 10543 10537 10529 10522 10514 10506 10498 10490 10482 10474 10465 10457 10448 10439 10431 10422 10413 10405 10396 10388 10380 10372 10363 10356 10350 10341 10331 10320 10308 10297 10286 10279 10278 10282 10284 10279
10622 10618 10613 10608 10604 10599 10593 10588 10583 10577 10571 10565 10559 10553 10546 10540 10534 10527 10519 10510 10502 10493 10485 10476 10467 10459 10450 10441 10432 10423 10414 10405 10396 10387 10378 10369 10361 10353 10344 10335 10328 10320 10311 10301 10289 10278 10267 10255 10246 10243 10246 10248